Regional Weather Roundup
Issued by NWS

Home | Current Version | Previous Version | Text Only | Print | Product List | Glossary Off
Versions: 1 2 3 4 5 6 7 8 9 10 11 12 13 14 15 16 17 18 19 20 21 22 23 24 25 26 27 28 29 30 31 32 33 34 35 36 37 38 39 40 41 42 43 44 45 46 47 48 49 50

000
ASUS45 KPSR 232310
RWRAZ

ARIZONA HOURLY REGIONAL WEATHER ROUNDUP
NATIONAL WEATHER SERVICE PHOENIX AZ
400 PM MST THU MAR 23 2017

NOTE: FAIR INDICATES FEW OR NO CLOUDS BELOW 12,000 FEET WITH NO
SIGNIFICANT WEATHER AND/OR OBSTRUCTIONS TO VISIBILITY.

AZZ001>003-036-240000-
NORTHWEST ARIZONA

CITY           SKY/WX    TMP DP  RH WIND       PRES   REMARKS
BULLHEAD CITY  MOSUNNY   73  32  21 CALM      29.94F
KINGMAN        PTSUNNY   60  22  23 W10       30.00S
$$

AZZ004>008-015-016-018-240000-
NORTH CENTRAL ARIZONA

CITY           SKY/WX    TMP DP  RH WIND       PRES   REMARKS
GRAND CANYON   CLOUDY    40  35  83 W10G18    29.96F WCI  33
WILLIAMS       LGT RAIN  37  34  87 W22G31    29.98R WCI  27
PRESCOTT       CLOUDY    46  37  71 W21       30.01R
FLAGSTAFF      PTSUNNY   34  30  85 SW15G24   29.97R WCI  24
PAYSON         CLOUDY    46  34  61 SW17G24   30.01S
PAGE           CLOUDY    49  32  52 W10G23    29.87R
$$

AZZ009>014-017-240000-
NORTHEAST ARIZONA

CITY           SKY/WX    TMP DP  RH WIND       PRES   REMARKS
WINSLOW        PTSUNNY   47  33  58 SW35G46   29.92S
SAINT JOHNS    MOSUNNY   49  28  44 W29G44    29.90S
WINDOW ROCK    CLOUDY    43  28  55 W15G22    29.88S
SHOW LOW       MOSUNNY   37  28  70 SW24      29.98S WCI  26
$$

AZZ023-240000-
GREATER PHOENIX AREA

CITY           SKY/WX    TMP DP  RH WIND       PRES   REMARKS
PHOENIX        PTSUNNY   71  34  25 W18G31    29.96S
BUCKEYE        MOSUNNY   68  34  28 W12G24    29.98S
GLENDALE       PTSUNNY   73  34  23 MISG      29.98S
LUKE AFB       PTSUNNY   71  35  26 SW16      29.95F
DEER VALLEY    PTSUNNY   66  36  32 W22       29.96S
SCOTTSDALE     PTSUNNY   67  32  27 W15G23    29.98S
MESA-FALCON    PTSUNNY  N/A N/A N/A SW12G23   29.95S
MESA-GATEWAY   PTSUNNY   66  36  32 NW17      29.99S
CHANDLER       MOSUNNY   68  34  28 SW17G25   29.98S
$$

AZZ027-028-240000-
SOUTHWEST MARICOPA COUNTY AND PINAL COUNTY

CITY           SKY/WX    TMP DP  RH WIND       PRES   REMARKS
CASA GRANDE    NOT AVBL
GILA BEND      MOSUNNY   71  29  21 SW18G26   29.99S
$$

AZZ503-504-507>509-240000-
SOUTHEAST ARIZONA

CITY           SKY/WX    TMP DP  RH WIND       PRES   REMARKS
TUCSON         MOSUNNY   65  27  23 W14G25    30.03R
DAVIS-MONTHAN  SUNNY     65  26  22 NW20G25   30.02R
RYAN FIELD     SUNNY     66  30  26 W15G25    30.03S
NOGALES        MOSUNNY   62  21  20 W17G26    30.04R
SIERRA VISTA   MOSUNNY   60  17  19 W24G30    30.04R
DOUGLAS        MOSUNNY   64  12  13 W30G36    29.99S
SAFFORD        PTSUNNY   61  35  37 W20G41    29.95S
$$

AZZ020-021-025-026-031-240000-
SOUTHWEST ARIZONA

CITY           SKY/WX    TMP DP  RH WIND       PRES   REMARKS
YUMA           MOSUNNY   75  35  23 W9        30.00F
$$

CAZ031-033-041-043-047-048-061-240000-
SOUTHERN CALIFORNIA

CITY           SKY/WX    TMP DP  RH WIND       PRES   REMARKS
DOWNTOWN L.A.  SUNNY     66  40  38 MISG      30.10S
L.A. AIRPORT   MOSUNNY   64  42  44 W21       30.11F
SAN DIEGO      MOSUNNY   64  45  49 W12       30.17S
BURBANK        SUNNY     66  36  32 S10       30.08S
ONTARIO        MOSUNNY   68  39  34 SW14G20   30.09S
RIVERSIDE      MOSUNNY   67  38  34 VRB7G17   30.09S
PALM SPRINGS   SUNNY     78  35  21 NW21G33   30.01S
EL CENTRO NAS  MOSUNNY   77  28  16 W14       30.01F
IMPERIAL       SUNNY     77  34  21 W7        29.99F
BLYTHE         SUNNY     78  27  15 NW12      29.97F
NEEDLES        MOSUNNY   76  31  19 NE8       29.95F
$$

NVZ020-UTZ003-240000-
SOUTHERN NEVADA-UTAH

CITY           SKY/WX    TMP DP  RH WIND       PRES   REMARKS
LAS VEGAS      MOSUNNY   71  23  16 N17G28    29.93F
SALT LAKE CITY LGT RAIN  38  34  85 N6        29.97R WCI  33
$$

NMZ009-TXZ055-240000-
NEW MEXICO-WEST TEXAS

CITY           SKY/WX    TMP DP  RH WIND       PRES   REMARKS
ALBUQUERQUE    CLOUDY    48  28  46 SE13G24   29.82F
EL PASO        BLWGDUST  69  14  12 W30G55    29.80R VSB 1
$$


........................KEY........................
SKY/WX - SKY CONDITION/WEATHER
TMP    - TEMPERATURE IN FAHRENHEIT
DP     - DEW POINT IN FAHRENHEIT
RH     - RELATIVE HUMIDITY IN PERCENT
WIND   - DIRECTION AND SPEED IN MILES PER HOUR (MPH)
VRB    - VARIABLE WIND DIRECTION
PRES   - MEAN SEA LEVEL PRESSURE IN INCHES OF MERCURY
         F - FALLING PRESSURE   R - RISING PRESSURE
         S - STEADY PRESSURE
VSB    - VISIBILITY IN MILES
HX     - HEAT INDEX IN FAHRENHEIT
WCI    - WIND CHILL INDEX IN FAHRENHEIT
TC     - TEMPERATURE IN CELSIUS WHICH IS ALSO KNOWN AS
         TEMPERATURE IN CENTIGRADE
AFB    - AIR FORCE BASE
         LUKE AFB IS LUKE AIR FORCE BASE
         DAVIS-MONTHAN IS DAVIS-MONTHAN AIR FORCE BASE
NAS    - NAVAL AIR STATION
         EL CENTRO NAS IS EL CENTRO NAVAL AIR STATION
N/A    - NOT AVAILABLE




USA.gov is the U.S. government's official web portal to all federal, state and local government web resources and services.